This is the latest recevied weather packets stored in our database for station/object JO1YDG-13. If no packets are shown the sender has not sent any weather packets the latest 1 day(s).
| Time | Temp. | Humidity | Pressure | Rain* | Wind** | Luminosity | Snow |
|---|---|---|---|---|---|---|---|
| 1778096639 | 15° C | 84% | 988.2 hPa | 0 mm | - | - | - |
| 1778096039 | 15° C | 84% | 988.2 hPa | 0 mm | - | - | - |
| 1778095138 | 15° C | 82% | 988.3 hPa | 0 mm | - | - | - |
| 1778094540 | 15° C | 81% | 988.4 hPa | 0 mm | - | - | - |
| 1778092739 | 15° C | 82% | 988.8 hPa | 0 mm | - | - | - |
| 1778091238 | 15° C | 78% | 988.8 hPa | 0 mm | - | - | - |
| 1778090938 | 15° C | 78% | 988.8 hPa | 0 mm | - | - | - |
| 1778089139 | 15° C | 84% | 988.7 hPa | 0 mm | - | - | - |
| 1778088839 | 15° C | 84% | 988.7 hPa | 0 mm | - | - | - |
| 1778087638 | 15° C | 81% | 988.9 hPa | 0 mm | - | - | - |
| 1778085839 | 14.44° C | 84% | 989 hPa | 0 mm | - | - | - |
| 1778084338 | 15° C | 84% | 989.2 hPa | 0 mm | - | - | - |
| 1778084040 | 15° C | 84% | 989.5 hPa | 0 mm | - | - | - |
| 1778082539 | 15° C | 83% | 989.6 hPa | 0 mm | - | - | - |
| 1778081338 | 15° C | 83% | 989.7 hPa | 0 mm | - | - | - |
| 1778081040 | 15° C | 83% | 989.7 hPa | 0 mm | - | - | - |
| 1778080138 | 15° C | 83% | 989.9 hPa | 0 mm | - | - | - |
| 1778079840 | 15° C | 82% | 990 hPa | 0 mm | - | - | - |
| 1778078638 | 15° C | 82% | 990.2 hPa | 0 mm | - | - | - |
| 1778078338 | 15° C | 82% | 990.2 hPa | 0 mm | - | - | - |
| 1778076839 | 15° C | 82% | 990.2 hPa | 0 mm | - | - | - |
| 1778076539 | 15° C | 82% | 990.2 hPa | 0 mm | - | - | - |
| 1778075340 | 14.44° C | 84% | 990.3 hPa | 0 mm | - | - | - |
| 1778073839 | 14.44° C | 83% | 990.4 hPa | 0 mm | - | - | - |
| 1778072338 | 15° C | 83% | 990.6 hPa | 0 mm | - | - | - |
* Rain latest hour (hover to see other rain measurements)
** Current wind speed in m/s (hover to see current wind gust speed)